Find Starlink 37573

NORAD ID: 69422 Int'l Des: 2026-126 Owner: SPXS Country: US Constellation: starlink operational
LEOCIRCULARRETROGRADE

当前视图

正在加载3D地球...

About Starlink 37573

Starlink 37573 (NORAD 69422) is a starlink constellation satellite launched Jun 7, 2026 by SPXS of US. It operates in LEO, CIRCULAR, RETROGRADE orbit with a mass of 575.00 kg.

即将过境

Passes for default location (London). Set your location on the main map for personalized predictions.

高度历史

Loading altitude history...

两行轨道根数

1 69422U 26126C 26207.25003472 -.02462883 00000-0 -31902-1 0 9991
2 69422 97.2842 69.1045 0002035 115.2544 188.9893 15.62369943 6004
Epoch: Jul 26, 2026 • Age: 5 hours

当前状态

高度 393.5 km
远地点 / 近地点 N/A
速度 7.68 km/s
星下点 60.25°N, 147.6°E
发射日期 Jun 7, 2026
运行时间 0.1 years
类型 internet

技术详情

分类 Payload
质量 575.00 kg
干质量 530.00 kg
总质量 575.00 kg
长度 0.30 m
直径 4.10 m
跨度 29.00 m
形状 Box + pan
制造商 SPXS
平台类型 Starlink V2MO
阶段状态 In Orbit
所有者/国家 SPXS/US

Most Searched